Location: Asheville, NC
(35.6000°N, 82.5500°W)
Time: 02:20:28
(UTC-04:00)

UWE-3 - Visible Passes

Search period start: 26 March 2019 00:00
Search period end: 05 April 2019 00:00
Orbit: 586 x 683 km, 97.6° (Epoch: 25 March)

Date Brightness Start Highest point End Pass type
(mag) Time Alt. Az. Time Alt. Az. Time Alt. Az.
26 Mar ? 06:43:46 10° ENE 06:46:02 13° E 06:48:18 10° ESE visible
29 Mar ? 20:18:47 10° SW 20:21:19 15° W 20:23:54 10° NW visible
30 Mar ? 06:35:40 10° E 06:36:34 10° E 06:37:27 10° ESE visible
03 Apr ? 20:32:36 10° WSW 20:33:45 11° W 20:34:54 10° WNW visible
04 Apr ? 06:46:22 10° ENE 06:49:03 15° E 06:51:43 10° SE visible
